Regional Weather Roundup
Issued by NWS Little Rock, AR

Home | Current Version | Previous Version | Graphics & Text | Print | Product List | Glossary On
Versions: 1 2 3 4 5 6 7 8 9 10 11 12 13 14 15 16 17 18 19 20 21 22 23 24 25 26 27 28 29 30 31
000
ASUS44 KLZK 221405
RWRLZK

WEATHER ROUNDUP FOR ARKANSAS
NATIONAL WEATHER SERVICE LITTLE ROCK AR
900 AM CDT THU JUN 22 2017

NOTE: "FAIR" INDICATES FEW OR NO CLOUDS BELOW 12,000 FEET WITH NO
SIGNIFICANT WEATHER AND/OR OBSTRUCTIONS TO VISIBILITY.

ARZ001-003-010-029-221500-
NORTHWEST ARKANSAS

CITY           SKY/WX    TMP DP  RH WIND       PRES   REMARKS
FAYETTEVILLE   CLOUDY    74  71  91 NE3       29.83S
FORT SMITH     CLOUDY    77  73  87 E8        29.78F
HARRISON       CLOUDY    71  71 100 SE9       29.85F FOG
BENTONVILLE    PTSUNNY   75  70  83 SE6       29.84F
ROGERS         CLOUDY    75  70  84 E9        29.85F
SILOAM SPGS    CLOUDY    73  70  88 SE8       29.82F
HIGHFILL       CLOUDY    77  72  84 SE10      29.83F
SPRINGDALE     CLOUDY    73  72  94 E5        29.85F
$$

ARZ004-005-016-221500-
NORTH CENTRAL ARKANSAS

CITY           SKY/WX    TMP DP  RH WIND       PRES   REMARKS
BATESVILLE     CLOUDY    75  72  88 E9        29.85S
FLIPPIN        CLOUDY    73  68  83 E3        29.82S
MTN HOME       CLOUDY    74  71  91 S10       29.85R
$$

ARZ040-041-221500-
WEST CENTRAL ARKANSAS

CITY           SKY/WX    TMP DP  RH WIND       PRES   REMARKS
MENA           CLOUDY    75  73  94 E7        29.79F
MOUNT IDA      CLOUDY    76  74  93 VRB3      29.77S
$$

ARZ009-017-025-026-028-221500-
NORTHEAST ARKANSAS

CITY           SKY/WX    TMP DP  RH WIND       PRES   REMARKS
CORNING        CLOUDY    75  75 100 SE9       29.88S FOG
JONESBORO      LGT RAIN  77  74  90 SE8       29.86S
WALNUT RIDGE   CLOUDY    75  70  83 E10       29.87S
BLYTHEVILLE    CLOUDY    76  74  93 S13       29.89R
NW BLYTHEVILLE CLOUDY    75  72  88 SE8       29.88S
$$

ARZ022-023-033-042-044-221500-
CENTRAL ARKANSAS

CITY           SKY/WX    TMP DP  RH WIND       PRES   REMARKS
LITTLE ROCK    CLOUDY    76  74  93 E8        29.81S
N LITTLE ROCK    N/A     75  73  93 E7        29.79F
JACKSONVILLE   CLOUDY    77  76  97 E10       29.81S
CONWAY           N/A     77  75  94 E6        29.79F
SEARCY         CLOUDY    78  75  90 SE7       29.85S
HOT SPRINGS    CLOUDY    76  32  20 E10       29.78F
RUSSELLVILLE   CLOUDY    75  73  93 E9        29.80F
CLINTON        PTSUNNY   75  73  94 VRB3      29.84R FOG
$$

ARZ036-221500-
EAST ARKANSAS

CITY           SKY/WX    TMP DP  RH WIND       PRES   REMARKS
WEST MEMPHIS   CLOUDY    78  75  90 SE14      29.85S
$$

ARZ050-053-066-070-073-221500-
SOUTHWEST ARKANSAS

CITY           SKY/WX    TMP DP  RH WIND       PRES   REMARKS
ARKADELPHIA    CLOUDY    79  74  84 VRB5      29.76F
CAMDEN         CLOUDY    79  72  78 E8        29.74F
TEXARKANA      CLOUDY    77  74  90 E8        29.71S
EL DORADO      CLOUDY    76  75  97 E8        29.74R
DE QUEEN       CLOUDY    78  75  90 E12       29.72F
$$

ARZ056-057-069-221500-
SOUTHEAST ARKANSAS

CITY           SKY/WX    TMP DP  RH WIND       PRES   REMARKS
PINE BLUFF     CLOUDY    78  74  87 E12       29.80S
STUTTGART      CLOUDY   N/A N/A N/A E17G23    29.81F
MONTICELLO     CLOUDY    79  74  84 E9        29.78S

$$






USA.gov is the U.S. government's official web portal to all federal, state and local government web resources and services.